DW4998 Weather Reports


Display with metric or nautical units.
time (UTC)temp
F
wind
direction
speed
MPH
gust
MPH
rain 1hr
in
rain 24hr
in
rain mn
in
humidity
%
barometer
mb
20260505211039 57 142 2.0 3.0 0.00 0.26 0.26 86 1006.5
20260505210031 57 143 1.0 3.0 0.00 0.26 0.26 87 1006.6
20260505205022 58 65 0.0 2.0 0.00 0.26 0.26 86 1006.5
20260505204105 58 121 1.0 3.0 0.00 0.26 0.26 87 1006.3
20260505203035 58 134 1.0 3.0 0.00 0.26 0.26 87 1006.3
20260505202026 58 135 1.0 4.0 0.00 0.26 0.26 86 1006.3
20260505201017 58 129 2.0 5.0 0.00 0.26 0.26 86 1006.3
20260505200039 58 128 2.0 6.0 0.00 0.26 0.26 86 1006.3
20260505195030 57 138 1.0 3.0 0.00 0.26 0.26 88 1006.1
20260505194022 58 228 1.0 2.0 0.00 0.26 0.26 87 1006.1
20260505193044 57 147 2.0 3.0 0.00 0.26 0.26 88 1006.0
20260505192036 57 132 1.0 3.0 0.00 0.26 0.26 89 1006.0
20260505191028 58 143 1.0 2.0 0.00 0.26 0.26 89 1006.1
20260505190038 58 168 1.0 2.0 0.00 0.26 0.26 89 1005.9
20260505185040 58 261 1.0 3.0 0.00 0.26 0.26 90 1005.9
20260505184031 58 73 0.0 2.0 0.00 0.26 0.26 90 1005.9
20260505183023 58 137 1.0 2.0 0.00 0.26 0.26 92 1006.0
20260505182045 58 144 1.0 3.0 0.05 0.26 0.26 92 1006.0
20260505181036 58 171 0.0 2.0 0.11 0.26 0.26 92 1006.0
20260505180027 57 137 2.0 5.0 0.15 0.26 0.26 92 1005.9
20260505175059 57 184 2.0 4.0 0.15 0.26 0.26 91 1006.0
20260505174040 57 197 2.0 4.0 0.17 0.26 0.26 91 1006.0
20260505173052 58 235 3.0 5.0 0.19 0.26 0.26 90 1005.9
20260505172024 59 209 2.0 4.0 0.15 0.21 0.21 90 1005.9
20260505171045 60 204 4.0 8.0 0.09 0.15 0.15 89 1005.8
20260505170037 61 139 1.0 3.0 0.05 0.11 0.11 86 1005.5
20260505165028 62 153 0.0 2.0 0.04 0.11 0.11 79 1005.4
20260505164020 62 0.0 1.0 0.02 0.09 0.09 81 1005.3
20260505163041 62 346 0.0 2.0 0.01 0.07 0.07 77 1005.5
20260505162033 64 329 1.0 3.0 0.00 0.07 0.07 73 1005.6
20260505161025 64 312 1.0 3.0 0.00 0.07 0.07 73 1005.5
20260505153021 64 116 1.0 4.0 0.00 0.07 0.07 71 1005.4
20260505152123 64 331 1.0 4.0 0.00 0.07 0.07 69 1005.4
20260505151036 62 339 1.0 3.0 0.00 0.07 0.07 73 1005.4
20260505124029 61 136 0.0 2.0 0.02 0.06 0.06 75 1006.8
20260505123021 61 44 0.0 3.0 0.02 0.06 0.06 76 1006.9
20260505122043 61 9 0.0 2.0 0.02 0.06 0.06 77 1006.9
20260505121035 61 256 0.0 2.0 0.01 0.05 0.05 77 1007.1
20260505120026 61 56 0.0 2.0 0.01 0.05 0.05 76 1007.1
20260505115018 62 319 0.0 2.0 0.01 0.05 0.05 74 1007.1
20260505114100 63 322 1.0 2.0 0.00 0.04 0.04 72 1007.1
20260505113031 63 353 1.0 3.0 0.00 0.04 0.04 70 1007.1
20260505112023 64 339 2.0 5.0 0.00 0.04 0.04 69 1007.2
20260505111046 63 360 1.0 3.0 0.00 0.04 0.04 69 1007.2
20260505102037 63 352 2.0 5.0 0.00 0.04 0.04 67 1007.4
20260505101029 63 316 2.0 4.0 0.00 0.04 0.04 68 1007.4
20260505100020 62 251 2.0 4.0 0.00 0.04 0.04 71 1007.5
20260505095042 62 234 2.0 4.0 0.00 0.04 0.04 71 1007.7
20260505094054 61 186 1.0 3.0 0.01 0.04 0.04 71 1007.6
20260505093025 62 242 1.0 4.0 0.01 0.04 0.04 72 1007.6
20260505092017 60 225 1.0 3.0 0.02 0.04 0.04 77 1007.7
20260505091039 60 185 0.0 2.0 0.02 0.04 0.04 79 1007.8
20260505090030 59 81 0.0 1.0 0.03 0.04 0.04 80 1007.7
20260505085101 58 157 1.0 3.0 0.03 0.04 0.04 81 1007.7
20260505084043 58 103 1.0 2.0 0.03 0.03 0.03 82 1007.8
20260505083035 58 210 1.0 3.0 0.03 0.03 0.03 82 1007.9
20260505082027 58 336 0.0 2.0 0.02 0.02 0.02 81 1007.9
20260505081018 58 216 1.0 3.0 0.02 0.02 0.02 82 1008.0
20260505080040 57 231 1.0 4.0 0.01 0.01 0.01 83 1008.3
20260505075032 58 200 2.0 4.0 0.01 0.01 0.01 82 1008.3
20260505074043 58 212 2.0 4.0 0.00 0.00 0.00 79 1008.3
20260505073045 58 208 2.0 4.0 0.00 0.00 0.00 76 1008.4
20260505072036 58 220 1.0 2.0 0.00 0.00 0.00 76 1008.3
20260505071027 58 341 2.0 4.0 0.00 0.00 0.00 77 1008.3
20260505070019 57 198 2.0 4.0 0.00 0.00 0.00 78 1008.3
20260505065042 58 184 3.0 6.0 0.00 0.00 0.00 79 1008.4
20260505064033 58 205 2.0 5.0 0.00 0.00 0.00 76 1008.4
20260505063024 58 359 4.0 6.0 0.00 0.00 0.00 79 1008.2
20260505062131 57 328 2.0 5.0 0.00 0.00 0.00 79 1008.2
20260505061038 57 331 2.0 4.0 0.00 0.00 0.00 79 1008.3
20260505060029 57 261 1.0 4.0 0.00 0.00 0.00 79 1008.2
20260505055021 57 343 2.0 4.0 0.00 0.00 0.00 81 1008.0
20260505054036 56 339 3.0 4.0 0.00 0.00 0.00 81 1008.1
20260505053028 56 14 1.0 4.0 0.00 0.00 0.00 81 1008.1
20260505052019 55 360 2.0 4.0 0.00 0.00 0.00 82 1008.1
20260505051101 55 72 2.0 3.0 0.00 0.00 0.00 83 1008.3
20260505041019 54 161 2.0 4.0 0.00 0.00 0.00 84 1008.3
20260505040041 53 193 1.0 4.0 0.00 0.00 0.00 86 1008.1
20260505035053 53 315 2.0 4.0 0.00 0.00 0.00 86 1008.2
20260505034023 53 331 2.0 4.0 0.00 0.00 0.00 85 1008.2
20260505033106 53 232 1.0 3.0 0.00 0.00 0.00 84 1008.2
20260505032057 54 344 1.0 4.0 0.00 0.00 0.00 83 1008.2
20260505031028 54 0 4.0 7.0 0.00 0.00 0.00 83 1008.4
20260505030020 54 346 2.0 6.0 0.00 0.00 0.00 84 1008.4
20260505025042 54 57 1.0 4.0 0.00 0.00 0.00 84 1008.5
20260505024054 54 240 2.0 5.0 0.00 0.00 0.00 84 1008.5
20260505023026 54 359 1.0 4.0 0.00 0.00 0.00 85 1008.7
20260505022037 55 177 1.0 4.0 0.00 0.00 0.00 83 1009.0
20260505021039 55 327 1.0 4.0 0.00 0.00 0.00 82 1009.1
20260505020051 56 2 3.0 5.0 0.00 0.00 0.00 81 1009.2
20260505015023 56 13 3.0 6.0 0.00 0.00 0.00 81 1009.3
20260505014045 57 16 1.0 3.0 0.00 0.00 0.00 79 1009.3
20260505013037 57 159 3.0 5.0 0.00 0.00 0.00 79 1009.3
20260505012029 57 187 2.0 3.0 0.00 0.00 0.00 79 1009.4
20260505011021 57 295 1.0 2.0 0.00 0.00 0.00 78 1009.4
20260505010042 57 0.0 0.0 0.00 0.00 0.00 78 1009.5
20260505005034 57 0.0 0.0 0.00 0.00 0.00 77 1009.6
20260505004025 57 0.0 0.0 0.00 0.00 0.00 77 1009.8
20260505003017 58 0.0 0.0 0.00 0.00 0.00 78 1010.0
20260505002040 58 0.0 0.0 0.00 0.00 0.00 77 1010.1
20260505001053 58 0.0 1.0 0.00 0.00 0.00 77 1010.1
20260505000044 58 0.0 0.0 0.00 0.00 0.00 78 1010.1
20260504234956 58 0.0 0.0 0.00 0.00 0.00 77 1010.2
20260504234046 58 0.0 1.0 0.00 0.00 0.00 77 1010.4
20260504233018 59 0.0 0.0 0.00 0.00 0.00 76 1010.4
20260504232040 59 0.0 0.0 0.00 0.00 0.00 75 1010.4
20260504231032 59 0.0 1.0 0.00 0.00 0.00 73 1010.6
20260504230023 60 0.0 0.0 0.00 0.00 0.00 73 1010.3
20260504225046 60 316 0.0 1.0 0.00 0.00 0.00 72 1010.5
20260504224037 60 0.0 0.0 0.00 0.00 0.00 72 1010.6
20260504223029 60 94 0.0 1.0 0.00 0.00 0.00 70 1010.8
20260504222021 60 198 0.0 2.0 0.00 0.00 0.00 71 1010.8
20260504220042 60 300 0.0 1.0 0.00 0.00 0.00 72 1011.0
20260504215037 60 168 0.0 1.0 0.00 0.00 0.00 72 1011.1
20260504214033 59 117 0.0 2.0 0.00 0.00 0.00 74 1011.2
20260504213046 60 151 0.0 3.0 0.00 0.00 0.00 73 1011.3
20260504212038 60 71 1.0 3.0 0.00 0.00 0.00 72 1011.4